EW0362 Weather Reports


time (UTC)temp
F
wind
direction
speed
knots
gust
knots
rain 1hr
in
rain 24hr
in
rain mn
in
humidity
%
barometer
mb
20200405233704 52 202 0.0 0.0 0.00 0.00 0.00 75 1013.9
20200405232703 53 202 0.0 0.0 0.00 0.00 0.00 77 1013.9
20200405232203 53 202 0.0 0.9 0.00 0.00 0.00 73 1013.8
20200405231704 53 202 0.0 1.7 0.00 0.00 0.00 75 1013.9
20200405231204 53 202 0.9 1.7 0.00 0.00 0.00 75 1014.0
20200405230704 53 202 0.0 0.0 0.00 0.00 0.00 76 1014.0
20200405230204 53 202 0.0 0.9 0.00 0.00 0.00 76 1014.0
20200405225704 53 202 0.0 0.9 0.00 0.00 0.00 74 1014.1
20200405224704 53 202 0.0 0.9 0.00 0.00 0.00 76 1014.1
20200405224204 53 202 0.0 0.9 0.00 0.00 0.00 77 1014.2
20200405223203 54 202 0.0 0.0 0.00 0.00 0.00 76 1014.2
20200405222204 54 202 0.0 0.0 0.00 0.00 0.00 78 1014.2
20200405221203 54 202 0.0 0.0 0.00 0.00 0.00 76 1014.2
20200405220703 54 202 0.0 0.0 0.00 0.00 0.00 75 1014.2
20200405215204 55 202 0.0 0.0 0.00 0.00 0.00 72 1014.2
20200405214204 55 202 0.0 0.0 0.00 0.00 0.00 72 1014.1
20200405213204 55 202 0.0 0.0 0.00 0.00 0.00 71 1014.1
20200405212703 55 202 0.0 0.0 0.00 0.00 0.00 71 1014.0
20200405212204 55 202 0.0 0.0 0.00 0.00 0.00 70 1014.0
20200405211704 55 202 0.0 0.9 0.00 0.00 0.00 70 1014.0
20200405205204 56 216 0.9 1.7 0.00 0.00 0.00 67 1014.1
20200405204204 56 205 0.0 0.9 0.00 0.00 0.00 67 1014.0
20200405203703 56 205 0.0 0.9 0.00 0.00 0.00 67 1014.1
20200405203204 56 205 0.9 2.6 0.00 0.00 0.00 67 1014.1
20200405202703 56 173 0.9 1.7 0.00 0.00 0.00 65 1014.1
20200405202203 56 173 0.9 2.6 0.00 0.00 0.00 67 1014.1
20200405200703 56 150 1.7 2.6 0.00 0.00 0.00 63 1014.1
20200405195203 56 184 2.6 6.1 0.00 0.00 0.00 63 1014.2
20200405194204 56 145 1.7 2.6 0.00 0.00 0.00 63 1014.3
20200405193704 56 200 0.9 6.1 0.00 0.00 0.00 63 1014.3
20200405193204 56 149 1.7 2.6 0.00 0.00 0.00 62 1014.3
20200405192204 56 185 0.9 2.6 0.00 0.00 0.00 62 1014.4
20200405191704 56 191 0.9 2.6 0.00 0.00 0.00 62 1014.5
20200405191204 56 134 0.9 2.6 0.00 0.00 0.00 62 1014.6
20200405185704 56 150 0.9 2.6 0.00 0.00 0.00 62 1014.8
20200405185204 56 171 0.9 2.6 0.00 0.00 0.00 61 1014.9
20200405184204 57 202 2.6 5.2 0.00 0.00 0.00 58 1015.1
20200405183704 57 163 0.9 2.6 0.00 0.00 0.00 60 1015.1
20200405183204 57 161 0.0 2.6 0.00 0.00 0.00 59 1015.2
20200405182204 57 171 0.9 2.6 0.00 0.00 0.00 60 1015.3
20200405181704 56 153 0.9 7.0 0.00 0.00 0.00 61 1015.4
20200405181204 56 133 0.9 2.6 0.00 0.00 0.00 61 1015.4
20200405180204 56 121 1.7 4.3 0.00 0.00 0.00 60 1015.5
20200405175704 56 141 2.6 4.3 0.00 0.00 0.00 60 1015.6
20200405175203 56 197 2.6 6.1 0.00 0.00 0.00 61 1015.7
20200405174704 56 133 2.6 2.6 0.00 0.00 0.00 60 1015.7
20200405173704 55 150 0.9 2.6 0.00 0.00 0.00 62 1015.9
20200405173204 55 230 1.7 2.6 0.00 0.00 0.00 62 1016.0
20200405172712 55 130 1.7 6.1 0.00 0.00 0.00 61 1016.1
20200405172210 54 130 2.6 2.6 0.00 0.00 0.00 63 1016.1
20200405171714 54 111 1.7 4.3 0.00 0.00 0.00 63 1016.1
20200405171204 54 140 1.7 4.3 0.00 0.00 0.00 63 1016.3
20200405165704 53 183 0.9 2.6 0.00 0.00 0.00 65 1016.5
20200405165204 53 184 0.9 1.7 0.00 0.00 0.00 65 1016.6
20200405164704 53 197 1.7 2.6 0.00 0.00 0.00 65 1016.7
20200405162204 52 177 1.7 2.6 0.00 0.00 0.00 65 1017.0
20200405161704 52 108 1.7 2.6 0.00 0.00 0.00 65 1016.9
20200405161204 52 187 0.9 2.6 0.00 0.00 0.00 66 1017.0
20200405160704 52 152 1.7 2.6 0.00 0.00 0.00 66 1017.2
20200405160204 51 189 0.9 4.3 0.00 0.00 0.00 67 1017.1
20200405155704 51 133 1.7 4.3 0.00 0.00 0.00 66 1017.2
20200405155204 51 132 0.9 2.6 0.00 0.00 0.00 66 1017.3
20200405154705 51 118 1.7 2.6 0.00 0.00 0.00 66 1017.3
20200405154204 51 132 1.7 2.6 0.00 0.00 0.00 67 1017.4
20200405153704 50 114 0.9 2.6 0.00 0.00 0.00 67 1017.5
20200405152704 50 134 1.7 2.6 0.00 0.00 0.00 66 1017.4
20200405151704 50 124 0.9 1.7 0.00 0.00 0.00 66 1017.5
20200405151204 50 121 1.7 2.6 0.00 0.00 0.00 67 1017.6
20200405145704 50 172 1.7 2.6 0.00 0.00 0.00 67 1017.8
20200405145204 50 142 1.7 2.6 0.00 0.00 0.00 66 1017.8
20200405144204 50 215 0.9 2.6 0.00 0.00 0.00 69 1017.7
20200405143704 50 222 1.7 2.6 0.00 0.00 0.00 68 1017.6
20200405143204 49 166 1.7 4.3 0.00 0.00 0.00 66 1017.6
20200405142704 49 152 0.9 2.6 0.00 0.00 0.00 67 1017.7
20200405142204 49 153 0.9 2.6 0.00 0.00 0.00 68 1017.7
20200405141704 49 212 0.9 2.6 0.00 0.00 0.00 69 1017.9
20200405141205 49 159 0.9 2.6 0.00 0.00 0.00 69 1017.8
20200405140704 49 141 1.7 4.3 0.00 0.00 0.00 69 1017.9
20200405140204 48 118 1.7 4.3 0.00 0.00 0.00 70 1018.0
20200405135204 48 199 2.6 6.1 0.00 0.00 0.00 68 1017.9
20200405134704 48 146 0.9 2.6 0.00 0.00 0.00 68 1017.9
20200405134205 48 140 0.9 2.6 0.00 0.00 0.00 70 1017.9
20200405133704 47 142 1.7 2.6 0.00 0.00 0.00 70 1017.9
20200405133204 47 146 2.6 4.3 0.00 0.00 0.00 69 1017.9
20200405132204 47 190 1.7 4.3 0.00 0.00 0.00 71 1018.0
20200405131704 47 192 0.9 1.7 0.00 0.00 0.00 72 1018.0
20200405130205 46 159 0.9 2.6 0.00 0.00 0.00 74 1018.0
20200405125704 46 151 0.9 1.7 0.00 0.00 0.00 74 1018.0
20200405125204 46 148 0.9 1.7 0.00 0.00 0.00 74 1017.9
20200405124704 46 146 0.9 1.7 0.00 0.00 0.00 76 1018.0
20200405124204 45 115 0.9 2.6 0.00 0.00 0.00 75 1018.0
20200405123209 44 5 0.0 0.0 0.00 0.00 0.00 79 1018.0
20200405120703 44 202 0.0 0.9 0.00 0.00 0.00 81 1018.1
20200405120203 43 204 0.9 1.7 0.00 0.00 0.00 82 1018.1
20200405114703 43 204 0.0 0.0 0.00 0.00 0.00 84 1017.9
20200405113704 42 204 0.0 0.0 0.00 0.00 0.00 85 1017.7
20200405113203 42 204 0.0 0.9 0.00 0.00 0.00 85 1017.7
20200405111204 42 174 0.0 0.0 0.00 0.00 0.00 86 1017.7
20200405110703 42 174 0.0 0.0 0.00 0.00 0.00 86 1017.6
20200405110203 41 174 0.0 0.0 0.00 0.00 0.00 87 1017.5
20200405105203 41 174 0.0 0.0 0.00 0.00 0.00 88 1017.5
20200405104703 41 174 0.0 0.9 0.00 0.00 0.00 87 1017.4
20200405104203 41 174 0.0 0.0 0.00 0.00 0.00 87 1017.4
20200405103703 41 174 0.0 0.0 0.00 0.00 0.00 87 1017.3
20200405103204 41 174 0.0 0.0 0.00 0.00 0.00 87 1017.3
20200405101704 41 174 0.0 0.0 0.00 0.00 0.00 88 1017.2
20200405101203 41 174 0.0 0.9 0.00 0.00 0.00 88 1017.2
20200405100703 41 174 0.0 0.0 0.00 0.00 0.00 88 1017.2
20200405095704 41 174 0.0 0.0 0.00 0.00 0.00 88 1017.1
20200405094203 41 174 0.0 0.0 0.00 0.00 0.00 88 1017.1
20200405093703 41 174 0.0 0.0 0.00 0.00 0.00 88 1017.1
20200405092204 41 174 0.0 0.0 0.00 0.00 0.00 89 1017.0
20200405091709 41 174 0.0 0.0 0.00 0.00 0.00 88 1017.0
20200405091204 41 174 0.0 0.0 0.00 0.00 0.00 88 1016.9
20200405090703 41 174 0.0 0.0 0.00 0.00 0.00 88 1017.0
20200405085703 41 174 0.0 0.9 0.00 0.00 0.00 88 1016.9
20200405084703 41 174 0.0 0.9 0.00 0.00 0.00 89 1016.8
20200405084204 41 174 0.0 0.9 0.00 0.00 0.00 88 1016.8
20200405083703 41 174 0.0 0.9 0.00 0.00 0.00 88 1016.8
20200405083204 41 174 0.0 0.9 0.00 0.00 0.00 89 1016.8
20200405082204 41 174 0.0 0.0 0.00 0.00 0.00 89 1016.8
20200405081703 41 174 0.0 0.0 0.00 0.00 0.00 89 1016.8
20200405081203 41 174 0.0 0.9 0.00 0.00 0.00 88 1016.9
20200405080703 41 174 0.0 0.9 0.00 0.00 0.00 88 1016.8
20200405075703 41 174 0.0 0.9 0.00 0.00 0.00 89 1016.8
20200405074703 41 174 0.0 0.0 0.00 0.00 0.00 89 1016.9
20200405074204 41 174 0.0 0.0 0.00 0.00 0.00 89 1016.9
20200405073703 41 174 0.0 0.0 0.00 0.00 0.00 89 1016.8
20200405073204 41 174 0.0 0.0 0.00 0.00 0.00 89 1016.8
20200405072704 41 174 0.0 0.0 0.00 0.00 0.00 88 1016.7
20200405072203 41 174 0.0 0.0 0.00 0.00 0.00 88 1016.7
20200405071704 41 174 0.0 0.0 0.00 0.00 0.00 88 1016.7
20200405070704 41 174 0.0 0.9 0.00 0.00 0.00 88 1016.7
20200405070204 41 174 0.0 0.9 0.00 0.00 0.00 88 1016.7
20200405065704 41 174 0.0 0.0 0.00 0.00 0.00 88 1016.7
20200405064204 41 174 0.0 0.9 0.00 0.00 0.00 87 1016.9
20200405063703 41 174 0.0 0.0 0.00 0.00 0.00 87 1016.9
20200405063203 41 174 0.0 0.0 0.00 0.00 0.00 88 1016.8
20200405062704 41 174 0.0 0.0 0.00 0.00 0.00 88 1016.9
20200405062203 41 174 0.0 0.0 0.00 0.00 0.00 88 1016.9
20200405061704 41 174 0.0 0.0 0.00 0.00 0.00 88 1016.7
20200405061203 41 174 0.0 0.0 0.00 0.00 0.00 87 1016.8
20200405060704 41 174 0.0 0.0 0.00 0.00 0.00 88 1016.8
20200405060203 41 174 0.0 0.0 0.00 0.00 0.00 87 1016.9
20200405055703 41 174 0.0 0.0 0.00 0.01 0.00 87 1016.9
20200405054704 41 174 0.0 0.0 0.00 0.01 0.00 87 1017.0
20200405054203 41 174 0.0 0.0 0.00 0.01 0.00 87 1017.1
20200405053704 41 174 0.0 0.0 0.00 0.01 0.00 87 1017.0
20200405051704 42 174 0.0 0.0 0.00 0.01 0.00 87 1016.9
20200405045203 42 174 0.0 0.0 0.00 0.01 0.00 86 1017.1
20200405044704 42 174 0.0 0.0 0.00 0.01 0.00 86 1017.1
20200405043704 42 174 0.0 0.0 0.00 0.02 0.00 86 1017.2
20200405042704 42 174 0.0 1.7 0.00 0.02 0.00 85 1017.1
20200405042203 42 174 0.0 0.9 0.00 0.02 0.00 85 1017.1
20200405041704 42 174 0.0 0.9 0.00 0.03 0.00 85 1017.0
20200405040704 42 190 0.0 0.0 0.00 0.03 0.00 86 1017.0
20200405040203 42 190 0.0 0.0 0.00 0.03 0.00 86 1017.0
20200405035702 42 190 0.0 0.0 0.00 0.04 0.04 86 1017.0
20200405034702 43 190 0.0 0.0 0.00 0.04 0.04 86 1016.9
20200405033702 43 190 0.0 0.9 0.00 0.04 0.04 86 1016.9
20200405033202 43 190 0.0 0.0 0.00 0.05 0.04 85 1016.9
20200405032702 43 190 0.0 0.9 0.00 0.05 0.04 85 1017.0
20200405032202 43 190 0.0 1.7 0.00 0.05 0.04 85 1016.9
20200405031702 43 190 0.0 1.7 0.00 0.05 0.04 85 1016.9
20200405031202 43 190 0.0 0.0 0.00 0.06 0.04 86 1016.8
20200405030702 43 190 0.0 1.7 0.00 0.06 0.04 85 1016.7
20200405025702 43 198 0.0 0.0 0.00 0.06 0.04 85 1016.7
20200405025202 43 198 0.0 0.0 0.00 0.07 0.04 85 1016.7
20200405024203 43 198 0.9 2.6 0.00 0.08 0.04 85 1016.7
20200405023702 44 202 0.0 0.9 0.00 0.08 0.04 84 1016.7
20200405023202 44 202 0.0 2.6 0.00 0.08 0.04 84 1016.6
20200405022702 44 217 0.0 1.7 0.00 0.08 0.04 84 1016.7
20200405022202 44 217 0.0 1.7 0.00 0.09 0.04 84 1016.5
20200405021702 44 217 0.0 1.7 0.00 0.09 0.04 84 1016.5
20200405021202 44 217 0.0 0.9 0.00 0.09 0.04 84 1016.4
20200405020703 44 217 0.0 0.0 0.00 0.09 0.04 83 1016.4
20200405020202 44 217 0.0 0.0 0.00 0.09 0.04 83 1016.4
20200405015702 44 217 0.0 2.6 0.00 0.10 0.04 83 1016.4
20200405015202 44 140 0.0 0.0 0.00 0.10 0.04 82 1016.4
20200405014703 45 140 0.0 0.9 0.00 0.10 0.04 82 1016.3
20200405014202 45 140 0.9 1.7 0.00 0.10 0.04 82 1016.4
20200405013702 45 140 0.0 2.6 0.00 0.10 0.04 81 1016.3
20200405013202 45 197 0.0 1.7 0.00 0.10 0.04 81 1016.4
20200405012703 45 197 0.0 0.9 0.00 0.11 0.04 81 1016.4
20200405012202 45 197 0.0 0.9 0.00 0.12 0.04 80 1016.4
20200405011202 45 197 0.0 0.9 0.00 0.12 0.04 80 1016.4
20200405010702 45 197 0.9 2.6 0.00 0.12 0.04 80 1016.2
20200405010202 45 147 0.0 0.9 0.00 0.13 0.04 80 1016.2
20200405004703 46 147 0.0 0.9 0.00 0.13 0.04 79 1016.3
20200405004203 46 147 0.0 0.9 0.00 0.13 0.04 79 1016.2
20200405003202 46 147 0.0 1.7 0.00 0.14 0.04 79 1016.2
20200405002203 46 147 0.0 0.0 0.00 0.14 0.04 78 1016.1
20200405001702 46 147 0.0 0.9 0.00 0.14 0.04 79 1016.0
20200405001202 46 147 0.0 0.9 0.00 0.14 0.04 78 1016.0
20200405000702 46 147 0.0 0.9 0.00 0.15 0.04 79 1016.0
20200404235702 46 147 0.0 0.9 0.00 0.15 0.04 78 1016.0
20200404235202 46 147 0.0 0.9 0.00 0.15 0.04 78 1016.0
20200404234202 46 146 0.0 0.0 0.00 0.16 0.04 77 1015.9